This is the latest recevied weather packets stored in our database for station/object K5KVN. If no packets are shown the sender has not sent any weather packets the latest 10 day(s).
| Time | Temp. | Humidity | Pressure | Rain* | Wind** | Luminosity | Snow |
|---|---|---|---|---|---|---|---|
| 1777936742 | 23.33° C | 63% | 1006.4 hPa | 0 mm | - | - | - |
| 1777936141 | 23.33° C | 62% | 1006.4 hPa | 0 mm | - | - | - |
| 1777935543 | 23.33° C | 61% | 1006.5 hPa | 0 mm | - | - | - |
| 1777934941 | 23.89° C | 59% | 1006.3 hPa | 0 mm | - | - | - |
| 1777934341 | 24.44° C | 60% | 1006.3 hPa | 0 mm | - | - | - |
| 1777933741 | 24.44° C | 63% | 1006.2 hPa | 0 mm | - | - | - |
| 1777933141 | 24.44° C | 61% | 1006.3 hPa | 0 mm | - | - | - |
| 1777932542 | 24.44° C | 60% | 1006.3 hPa | 0 mm | - | - | - |
| 1777931941 | 25° C | 57% | 1006.3 hPa | 0 mm | - | - | - |
| 1777931343 | 25° C | 59% | 1006.7 hPa | 0 mm | - | - | - |
| 1777930741 | 25° C | 57% | 1006.5 hPa | 0 mm | - | - | - |
| 1777930202 | 25° C | 57% | 1006.8 hPa | 0 mm | - | - | - |
| 1777929543 | 25° C | 57% | 1006.9 hPa | 0 mm | - | - | - |
| 1777929003 | 25° C | 58% | 1007 hPa | 0 mm | - | - | - |
| 1777928341 | 25° C | 59% | 1007.2 hPa | 0 mm | - | - | - |
| 1777927738 | 25° C | 56% | 1007.2 hPa | 0 mm | - | - | - |
| 1777927137 | 25° C | 57% | 1007.5 hPa | 0 mm | - | - | - |
| 1777926537 | 25° C | 58% | 1007.7 hPa | 0 mm | - | - | - |
| 1777925938 | 25° C | 57% | 1007.8 hPa | 0 mm | - | - | - |
| 1777925337 | 25° C | 57% | 1008.1 hPa | 0 mm | - | - | - |
| 1777924737 | 25° C | 57% | 1008.2 hPa | 0 mm | - | - | - |
| 1777924136 | 25.56° C | 61% | 1008.3 hPa | 0 mm | - | - | - |
| 1777923597 | 25.56° C | 59% | 1008.3 hPa | 0 mm | - | - | - |
| 1777922935 | 25° C | 59% | 1008.4 hPa | 0 mm | - | - | - |
| 1777922337 | 25° C | 59% | 1008.6 hPa | 0 mm | - | - | - |
* Rain latest hour (hover to see other rain measurements)
** Current wind speed in m/s (hover to see current wind gust speed)